TimeMDT,TemperatureF,Dew PointF,Humidity,Sea Level PressureIn,VisibilityMPH,Wind Direction,Wind SpeedMPH,Gust SpeedMPH,PrecipitationIn,Events,Conditions,WindDirDegrees,DateUTC
12:55 AM,55.4,32.0,41,29.74,25.0,SSW,9.2,-,N/A,,Clear,200,2012-10-03 06:55:00
1:55 AM,57.2,32.0,38,29.73,25.0,SW,13.8,-,N/A,,Clear,220,2012-10-03 07:55:00
2:55 AM,55.4,28.4,36,29.73,25.0,SSW,10.4,-,N/A,,Clear,200,2012-10-03 08:55:00
3:55 AM,57.2,28.4,33,29.74,25.0,South,6.9,-,N/A,,Clear,180,2012-10-03 09:55:00
4:55 AM,53.6,32.0,44,29.75,25.0,South,9.2,-,N/A,,Clear,180,2012-10-03 10:55:00
5:55 AM,55.4,28.4,36,29.78,25.0,WSW,10.4,-,N/A,,Clear,240,2012-10-03 11:55:00
6:55 AM,57.2,28.4,33,29.81,70.0,SSW,5.8,-,N/A,,Partly Cloudy,210,2012-10-03 12:55:00
7:55 AM,55.4,32.0,41,29.80,70.0,South,8.1,-,N/A,,Partly Cloudy,180,2012-10-03 13:55:00
8:55 AM,62.6,32.0,32,29.79,70.0,South,12.7,-,N/A,,Partly Cloudy,180,2012-10-03 14:55:00
9:55 AM,69.8,32.0,25,29.78,70.0,SW,9.2,-,N/A,,Partly Cloudy,220,2012-10-03 15:55:00
10:55 AM,73.4,30.2,20,29.75,70.0,SSW,9.2,-,N/A,,Partly Cloudy,210,2012-10-03 16:55:00
11:55 AM,77.0,24.8,14,29.73,70.0,SW,12.7,17.3,N/A,,Scattered Clouds,230,2012-10-03 17:55:00
12:55 PM,78.8,24.8,14,29.71,70.0,NW,12.7,21.9,N/A,,Mostly Cloudy,310,2012-10-03 18:55:00
1:55 PM,78.8,23.0,13,29.69,70.0,NW,12.7,-,N/A,,Mostly Cloudy,310,2012-10-03 19:55:00
2:55 PM,77.0,23.0,13,29.70,70.0,NNW,2.3,-,N/A,,Mostly Cloudy,330,2012-10-03 20:55:00
3:55 PM,78.8,24.8,14,29.70,70.0,ENE,6.9,-,N/A,,Mostly Cloudy,70,2012-10-03 21:55:00
4:55 PM,75.2,26.6,17,29.73,70.0,NNE,5.8,-,N/A,,Mostly Cloudy,30,2012-10-03 22:55:00
5:55 PM,60.8,32.0,34,29.87,25.0,NNE,25.3,34.5,N/A,,Mostly Cloudy,30,2012-10-03 23:55:00
6:55 PM,53.6,32.0,44,30.00,25.0,North,29.9,32.2,N/A,,Mostly Cloudy,10,2012-10-04 00:55:00
7:55 PM,46.4,32.0,57,30.14,25.0,North,20.7,28.8,N/A,,Mostly Cloudy,360,2012-10-04 01:55:00
8:55 PM,42.8,32.0,66,30.20,25.0,North,18.4,25.3,N/A,,Overcast,10,2012-10-04 02:55:00
9:55 PM,39.2,30.2,70,30.23,10.0,North,15.0,-,N/A,,Mostly Cloudy,10,2012-10-04 03:55:00
10:55 PM,37.4,28.4,70,30.25,10.0,North,11.5,-,N/A,,Scattered Clouds,10,2012-10-04 04:55:00
11:55 PM,33.8,26.6,75,30.24,10.0,NE,4.6,-,N/A,,Scattered Clouds,40,2012-10-04 05:55:00